Time,TemperatureF,DewpointF,PressureIn,WindDirection,WindDirectionDegrees,WindSpeedMPH,WindSpeedGustMPH,Humidity,HourlyPrecipIn,Conditions,Clouds,dailyrainin,SoftwareType,DateUTC
2013-02-18 00:01:00,26.0,25.0,-100.00,SE,141,0.0,0.0,96,0.00,,,0.00,,2013-02-18 08:01:00,
2013-02-18 00:52:00,26.0,25.0,-100.00,North,359,0.0,0.0,97,0.00,,,0.00,,2013-02-18 08:52:00,
2013-02-18 01:02:00,26.0,25.0,-100.00,North,359,0.0,0.0,97,0.00,,,0.00,,2013-02-18 09:02:00,
2013-02-18 01:52:00,24.0,24.0,-100.00,ESE,118,0.0,2.0,99,-99.99,,,0.00,,2013-02-18 09:52:00,
2013-02-18 02:01:00,24.0,24.0,-100.00,ESE,118,0.0,2.0,99,-99.99,,,0.00,,2013-02-18 10:01:00,
2013-02-18 02:52:00,24.0,24.0,-100.00,SE,129,0.0,0.0,99,-99.99,,,0.00,,2013-02-18 10:52:00,
2013-02-18 03:01:00,24.0,24.0,-100.00,SE,129,0.0,0.0,99,-99.99,,,0.00,,2013-02-18 11:01:00,
2013-02-18 03:53:00,21.0,21.0,-100.00,SE,131,0.0,0.0,99,-99.99,,,-99.99,,2013-02-18 11:53:00,
2013-02-18 04:02:00,21.0,21.0,-100.00,SE,131,0.0,0.0,99,-99.99,,,-99.99,,2013-02-18 12:02:00,
2013-02-18 04:53:00,21.0,21.0,-100.00,SSE,148,0.0,0.0,99,-99.99,,,0.00,,2013-02-18 12:53:00,
2013-02-18 05:02:00,21.0,21.0,-100.00,SSE,148,0.0,0.0,99,-99.99,,,0.00,,2013-02-18 13:02:00,
2013-02-18 05:53:00,20.0,20.0,-100.00,SE,127,0.0,0.0,100,-99.99,,,0.00,,2013-02-18 13:53:00,
2013-02-18 06:02:00,20.0,20.0,-100.00,SE,127,0.0,0.0,100,-99.99,,,0.00,,2013-02-18 14:02:00,
2013-02-18 06:53:00,19.0,19.0,-100.00,SE,136,0.0,0.0,99,-99.99,,,0.00,,2013-02-18 14:53:00,
2013-02-18 07:02:00,19.0,19.0,-100.00,SE,136,0.0,0.0,99,-99.99,,,0.00,,2013-02-18 15:02:00,
2013-02-18 07:52:00,23.0,22.0,-100.00,SE,130,0.0,0.0,97,-99.99,,,0.00,,2013-02-18 15:52:00,
2013-02-18 08:02:00,23.0,22.0,-100.00,SE,130,0.0,0.0,97,-99.99,,,0.00,,2013-02-18 16:02:00,
2013-02-18 08:53:00,42.0,29.0,-100.00,ESE,123,0.0,0.0,59,-99.99,,,0.00,,2013-02-18 16:53:00,
2013-02-18 09:03:00,42.0,29.0,-100.00,ESE,123,0.0,0.0,59,-99.99,,,0.00,,2013-02-18 17:03:00,
2013-02-18 09:53:00,58.0,20.0,-100.00,SSE,152,0.0,3.0,23,-99.99,,,0.00,,2013-02-18 17:53:00,
2013-02-18 10:02:00,58.0,20.0,-100.00,SSE,152,0.0,3.0,23,-99.99,,,0.00,,2013-02-18 18:02:00,
2013-02-18 10:11:00,58.0,20.0,-100.00,SSE,152,0.0,3.0,23,-99.99,,,0.00,,2013-02-18 18:11:00,
2013-02-18 10:22:00,58.0,20.0,-100.00,SSE,152,0.0,3.0,23,-99.99,,,0.00,,2013-02-18 18:22:00,
2013-02-18 10:53:00,60.0,7.0,-100.00,South,176,6.0,9.0,12,0.00,,,0.00,,2013-02-18 18:53:00,
2013-02-18 11:02:00,60.0,7.0,-100.00,South,176,6.0,9.0,12,0.00,,,0.00,,2013-02-18 19:02:00,
2013-02-18 11:53:00,61.0,8.0,-100.00,SSE,161,8.0,16.0,12,0.00,,,0.00,,2013-02-18 19:53:00,
2013-02-18 12:02:00,61.0,8.0,-100.00,SSE,161,8.0,16.0,12,0.00,,,0.00,,2013-02-18 20:02:00,
2013-02-18 12:12:00,61.0,8.0,-100.00,SSE,161,8.0,16.0,12,0.00,,,0.00,,2013-02-18 20:12:00,
2013-02-18 12:21:00,61.0,8.0,-100.00,SSE,161,8.0,16.0,12,0.00,,,0.00,,2013-02-18 20:21:00,
2013-02-18 12:53:00,62.0,11.0,-100.00,WSW,245,6.0,19.0,13,0.00,,,0.00,,2013-02-18 20:53:00,
2013-02-18 13:02:00,62.0,11.0,-100.00,WSW,245,6.0,19.0,13,0.00,,,0.00,,2013-02-18 21:02:00,
2013-02-18 13:11:00,62.0,11.0,-100.00,WSW,245,6.0,19.0,13,0.00,,,0.00,,2013-02-18 21:11:00,
2013-02-18 13:21:00,62.0,11.0,-100.00,WSW,245,6.0,19.0,13,0.00,,,0.00,,2013-02-18 21:21:00,
2013-02-18 13:53:00,61.0,11.0,-100.00,SE,144,5.0,15.0,14,0.00,,,0.00,,2013-02-18 21:53:00,
2013-02-18 14:02:00,61.0,11.0,-100.00,SE,144,5.0,15.0,14,0.00,,,0.00,,2013-02-18 22:02:00,
2013-02-18 14:53:00,62.0,20.0,-100.00,West,275,3.0,16.0,20,0.00,,,0.00,,2013-02-18 22:53:00,
2013-02-18 15:02:00,62.0,20.0,-100.00,West,275,3.0,16.0,20,0.00,,,0.00,,2013-02-18 23:02:00,
2013-02-18 15:11:00,62.0,20.0,-100.00,West,275,3.0,16.0,20,0.00,,,0.00,,2013-02-18 23:11:00,
2013-02-18 15:22:00,62.0,20.0,-100.00,West,275,3.0,16.0,20,0.00,,,0.00,,2013-02-18 23:22:00,
2013-02-18 15:53:00,61.0,22.0,-100.00,South,180,3.0,11.0,22,0.00,,,0.00,,2013-02-18 23:53:00,
2013-02-18 16:02:00,61.0,22.0,-100.00,South,180,3.0,11.0,22,0.00,,,0.00,,2013-02-19 00:02:00,
2013-02-18 16:12:00,61.0,22.0,-100.00,South,180,3.0,11.0,22,0.00,,,0.00,,2013-02-19 00:12:00,
2013-02-18 16:22:00,61.0,22.0,-100.00,South,180,3.0,11.0,22,0.00,,,0.00,,2013-02-19 00:22:00,
2013-02-18 16:54:00,54.0,27.0,-100.00,NW,325,1.0,10.0,35,0.00,,,0.00,,2013-02-19 00:54:00,
2013-02-18 17:03:00,54.0,27.0,-100.00,NW,325,1.0,10.0,35,0.00,,,0.00,,2013-02-19 01:03:00,
2013-02-18 17:22:00,54.0,27.0,-100.00,NW,325,1.0,10.0,35,0.00,,,0.00,,2013-02-19 01:22:00,
2013-02-18 17:55:00,47.0,31.0,-100.00,North,349,1.0,6.0,53,0.00,,,0.00,,2013-02-19 01:55:00,
2013-02-18 18:02:00,47.0,31.0,-100.00,North,349,1.0,6.0,53,0.00,,,0.00,,2013-02-19 02:02:00,
2013-02-18 18:12:00,47.0,31.0,-100.00,North,349,1.0,6.0,53,0.00,,,0.00,,2013-02-19 02:12:00,
2013-02-18 18:22:00,47.0,31.0,-100.00,North,349,1.0,6.0,53,0.00,,,0.00,,2013-02-19 02:22:00,
2013-02-18 18:54:00,38.0,27.0,-100.00,NNW,335,0.0,7.0,65,0.00,,,0.00,,2013-02-19 02:54:00,
2013-02-18 19:13:00,38.0,27.0,-100.00,NNW,335,0.0,7.0,65,0.00,,,0.00,,2013-02-19 03:13:00,
2013-02-18 19:22:00,38.0,27.0,-100.00,NNW,335,0.0,7.0,65,0.00,,,0.00,,2013-02-19 03:22:00,
2013-02-18 19:54:00,35.0,28.0,-100.00,ENE,59,0.0,0.0,76,0.00,,,0.00,,2013-02-19 03:54:00,
2013-02-18 20:02:00,35.0,28.0,-100.00,ENE,59,0.0,0.0,76,0.00,,,0.00,,2013-02-19 04:02:00,
2013-02-18 20:22:00,35.0,28.0,-100.00,ENE,59,0.0,0.0,76,0.00,,,0.00,,2013-02-19 04:22:00,
2013-02-18 20:54:00,31.0,27.0,-100.00,SE,130,0.0,0.0,84,0.00,,,0.00,,2013-02-19 04:54:00,
2013-02-18 21:02:00,31.0,27.0,-100.00,SE,130,0.0,0.0,84,0.00,,,0.00,,2013-02-19 05:02:00,
2013-02-18 21:12:00,31.0,27.0,-100.00,SE,130,0.0,0.0,84,0.00,,,0.00,,2013-02-19 05:12:00,
2013-02-18 21:22:00,31.0,27.0,-100.00,SE,130,0.0,0.0,84,0.00,,,0.00,,2013-02-19 05:22:00,
2013-02-18 21:52:00,28.0,26.0,-100.00,ENE,69,0.0,0.0,92,0.00,,,0.00,,2013-02-19 05:52:00,
2013-02-18 22:02:00,28.0,26.0,-100.00,ENE,69,0.0,0.0,92,0.00,,,0.00,,2013-02-19 06:02:00,
2013-02-18 22:11:00,28.0,26.0,-100.00,ENE,69,0.0,0.0,92,0.00,,,0.00,,2013-02-19 06:11:00,
2013-02-18 22:21:00,28.0,26.0,-100.00,ENE,69,0.0,0.0,92,0.00,,,0.00,,2013-02-19 06:21:00,
2013-02-18 22:52:00,25.0,23.0,-100.00,SE,139,0.0,3.0,93,0.00,,,0.00,,2013-02-19 06:52:00,
2013-02-18 23:01:00,25.0,23.0,-100.00,SE,139,0.0,3.0,93,0.00,,,0.00,,2013-02-19 07:01:00,
2013-02-18 23:11:00,25.0,23.0,-100.00,SE,139,0.0,3.0,93,0.00,,,0.00,,2013-02-19 07:11:00,
2013-02-18 23:21:00,25.0,23.0,-100.00,SE,139,0.0,3.0,93,0.00,,,0.00,,2013-02-19 07:21:00,
2013-02-18 23:52:00,25.0,24.0,-100.00,East,82,0.0,3.0,96,0.00,,,0.00,,2013-02-19 07:52:00,